| time (UTC) | temp F | wind direction | speed knots | gust knots | rain 1hr in | rain 24hr in | rain mn in | humidity % | barometer mb |
| 20260504012011 | 54 | 315 | 14.8 | 14.8 | 0.00 | 0.00 | 0.00 | 50 | 88.8 |
| 20260504011012 | 55 | 315 | 22.6 | 22.6 | 0.00 | 0.00 | 0.00 | 47 | 88.8 |
| 20260504010011 | 56 | 338 | 21.7 | 21.7 | 0.00 | 0.00 | 0.00 | 44 | 88.8 |
| 20260504005011 | 56 | 0 | 13.9 | 13.9 | 0.00 | 0.00 | 0.00 | 43 | 88.8 |
| 20260504004012 | 57 | 0 | 19.1 | 19.1 | 0.00 | 0.00 | 0.00 | 44 | 88.8 |
| 20260504003012 | 58 | 338 | 18.2 | 18.2 | 0.00 | 0.00 | 0.00 | 43 | 88.8 |
| 20260504002012 | 59 | 0 | 21.7 | 21.7 | 0.00 | 0.00 | 0.00 | 41 | 88.8 |
| 20260504001011 | 60 | 315 | 17.4 | 17.4 | 0.00 | 0.00 | 0.00 | 41 | 88.8 |
| 20260504000012 | 60 | 315 | 21.7 | 21.7 | 0.00 | 0.00 | 0.00 | 41 | 88.8 |
| 20260503235011 | 60 | 292 | 16.5 | 16.5 | 0.00 | 0.00 | 0.00 | 41 | 88.8 |
| 20260503234011 | 61 | 338 | 22.6 | 22.6 | 0.00 | 0.00 | 0.00 | 40 | 88.8 |
| 20260503233012 | 61 | 22 | 18.2 | 18.2 | 0.00 | 0.00 | 0.00 | 38 | 88.8 |
| 20260503232011 | 62 | 315 | 23.5 | 23.5 | 0.00 | 0.00 | 0.00 | 37 | 88.8 |
| 20260503231011 | 62 | 0 | 25.2 | 25.2 | 0.00 | 0.00 | 0.00 | 37 | 88.8 |
| 20260503230012 | 63 | 315 | 24.3 | 24.3 | 0.00 | 0.00 | 0.00 | 36 | 88.8 |
| 20260503225011 | 63 | 22 | 29.5 | 29.5 | 0.00 | 0.00 | 0.00 | 37 | 88.8 |
| 20260503224012 | 65 | 315 | 24.3 | 24.3 | 0.00 | 0.00 | 0.00 | 38 | 88.8 |
| 20260503223012 | 65 | 0 | 26.1 | 26.1 | 0.00 | 0.00 | 0.00 | 38 | 88.8 |
| 20260503222012 | 65 | 338 | 26.9 | 26.9 | 0.00 | 0.00 | 0.00 | 37 | 88.8 |
| 20260503221011 | 66 | 22 | 25.2 | 25.2 | 0.00 | 0.00 | 0.00 | 36 | 88.8 |
| 20260503220012 | 67 | 338 | 23.5 | 23.5 | 0.00 | 0.00 | 0.00 | 35 | 88.8 |
| 20260503215011 | 67 | 0 | 23.5 | 23.5 | 0.00 | 0.00 | 0.00 | 36 | 88.8 |
| 20260503214012 | 67 | 338 | 26.1 | 26.1 | 0.00 | 0.00 | 0.00 | 39 | 88.8 |
| 20260503213012 | 68 | 22 | 19.1 | 19.1 | 0.00 | 0.00 | 0.00 | 39 | 88.8 |
| 20260503212011 | 68 | 315 | 23.5 | 23.5 | 0.00 | 0.00 | 0.00 | 41 | 88.8 |
| 20260503211011 | 69 | 315 | 22.6 | 22.6 | 0.00 | 0.00 | 0.00 | 41 | 88.8 |
| 20260503210012 | 70 | 292 | 21.7 | 21.7 | 0.00 | 0.00 | 0.00 | 40 | 88.8 |
| 20260503205012 | 70 | 338 | 18.2 | 18.2 | 0.00 | 0.00 | 0.00 | 40 | 88.8 |
| 20260503204011 | 70 | 338 | 21.7 | 21.7 | 0.00 | 0.00 | 0.00 | 39 | 88.8 |
| 20260503203012 | 71 | 292 | 26.1 | 26.1 | 0.00 | 0.00 | 0.00 | 39 | 88.8 |
| 20260503202011 | 71 | 270 | 20.0 | 20.0 | 0.00 | 0.00 | 0.00 | 39 | 88.8 |
| 20260503201012 | 72 | 292 | 19.1 | 19.1 | 0.00 | 0.00 | 0.00 | 37 | 88.8 |
| 20260503200012 | 72 | 292 | 19.1 | 19.1 | 0.00 | 0.00 | 0.00 | 37 | 88.8 |
| 20260503195011 | 71 | 270 | 17.4 | 17.4 | 0.00 | 0.00 | 0.00 | 38 | 88.8 |
| 20260503194012 | 70 | 292 | 25.2 | 25.2 | 0.00 | 0.00 | 0.00 | 37 | 88.8 |
| 20260503193011 | 70 | 292 | 23.5 | 23.5 | 0.00 | 0.00 | 0.00 | 38 | 88.8 |
| 20260503192012 | 70 | 292 | 24.3 | 24.3 | 0.00 | 0.00 | 0.00 | 38 | 88.8 |
| 20260503191011 | 70 | 292 | 19.1 | 19.1 | 0.00 | 0.00 | 0.00 | 38 | 88.8 |
| 20260503190012 | 70 | 292 | 20.0 | 20.0 | 0.00 | 0.00 | 0.00 | 38 | 88.8 |
| 20260503185012 | 70 | 292 | 22.6 | 22.6 | 0.00 | 0.00 | 0.00 | 37 | 88.8 |
| 20260503184011 | 70 | 270 | 14.8 | 14.8 | 0.00 | 0.00 | 0.00 | 37 | 88.8 |
| 20260503183012 | 69 | 315 | 19.1 | 19.1 | 0.00 | 0.00 | 0.00 | 38 | 88.8 |
| 20260503182012 | 69 | 292 | 20.9 | 20.9 | 0.00 | 0.00 | 0.00 | 39 | 88.8 |
| 20260503181011 | 69 | 292 | 22.6 | 22.6 | 0.00 | 0.00 | 0.00 | 39 | 88.8 |
| 20260503180012 | 69 | 315 | 20.9 | 20.9 | 0.00 | 0.00 | 0.00 | 40 | 88.8 |
| 20260503175012 | 68 | 292 | 18.2 | 18.2 | 0.00 | 0.00 | 0.00 | 40 | 88.8 |
| 20260503174011 | 68 | 292 | 14.8 | 14.8 | 0.00 | 0.00 | 0.00 | 41 | 88.8 |
| 20260503173012 | 67 | 292 | 18.2 | 18.2 | 0.00 | 0.00 | 0.00 | 41 | 88.8 |
| 20260503172012 | 67 | 292 | 11.3 | 11.3 | 0.00 | 0.00 | 0.00 | 42 | 88.8 |
| 20260503171011 | 66 | 270 | 10.4 | 10.4 | 0.00 | 0.00 | 0.00 | 42 | 88.8 |
| 20260503151011 | 59 | 270 | 13.9 | 13.9 | 0.00 | 0.00 | 0.00 | 57 | 88.8 |
| 20260503131012 | 54 | 225 | 10.4 | 10.4 | 0.00 | 0.00 | 0.00 | 60 | 88.8 |
| 20260503081011 | 44 | 270 | 6.1 | 6.1 | 0.00 | 0.00 | 0.00 | 55 | 88.8 |
| 20260503072011 | 45 | 270 | 6.1 | 6.1 | 0.00 | 0.00 | 0.00 | 57 | 88.8 |
| 20260503071011 | 45 | 270 | 5.2 | 5.2 | 0.00 | 0.00 | 0.00 | 58 | 88.8 |
| 20260503055011 | 46 | 270 | 5.2 | 5.2 | 0.00 | 0.00 | 0.00 | 52 | 88.8 |
| 20260503054011 | 45 | 270 | 4.3 | 4.3 | 0.00 | 0.00 | 0.00 | 52 | 88.8 |
| 20260503053012 | 43 | 270 | 6.1 | 6.1 | 0.00 | 0.00 | 0.00 | 52 | 88.8 |
| 20260503052012 | 40 | 270 | 4.3 | 4.3 | 0.00 | 0.00 | 0.00 | 53 | 88.8 |
| 20260503051012 | 39 | 270 | 3.5 | 3.5 | 0.00 | 0.00 | 0.00 | 52 | 88.8 |
| 20260503050012 | 38 | 270 | 3.5 | 3.5 | 0.00 | 0.00 | 0.00 | 52 | 88.8 |
| 20260503045012 | 39 | 270 | 3.5 | 3.5 | 0.00 | 0.00 | 0.00 | 57 | 88.8 |
| 20260503044012 | 39 | 270 | 0.0 | 0.0 | 0.00 | 0.00 | 0.00 | 54 | 88.8 |
| 20260503043012 | 39 | 270 | 4.3 | 4.3 | 0.00 | 0.00 | 0.00 | 52 | 88.8 |
| 20260503042012 | 39 | 248 | 0.0 | 0.0 | 0.00 | 0.00 | 0.00 | 64 | 88.8 |
| 20260503041011 | 40 | 270 | 0.0 | 0.0 | 0.00 | 0.00 | 0.00 | 61 | 88.8 |
| 20260503040012 | 40 | 270 | 0.0 | 0.0 | 0.00 | 0.00 | 0.00 | 60 | 88.8 |
| 20260503035012 | 41 | 248 | 0.9 | 0.9 | 0.00 | 0.00 | 0.00 | 56 | 88.8 |
| 20260503034010 | 41 | 112 | 0.0 | 0.0 | 0.00 | 0.00 | 0.00 | 56 | 88.8 |
| 20260503033012 | 42 | 270 | 2.6 | 2.6 | 0.00 | 0.00 | 0.00 | 51 | 88.8 |
| 20260503032012 | 43 | 270 | 4.3 | 4.3 | 0.00 | 0.00 | 0.00 | 51 | 88.8 |
| 20260503031011 | 0 | 0 | 0.0 | 0.0 | 0.00 | 0.00 | 0.00 | 100 | |
| 20260503030011 | 45 | 270 | 3.5 | 3.5 | 0.00 | 0.00 | 0.00 | 48 | 88.8 |
| 20260503025012 | 47 | 270 | 3.5 | 3.5 | 0.00 | 0.00 | 0.00 | 48 | 88.8 |
| 20260503024012 | 49 | 270 | 4.3 | 4.3 | 0.00 | 0.00 | 0.00 | 47 | 88.8 |
| 20260503023011 | 51 | 270 | 3.5 | 3.5 | 0.00 | 0.00 | 0.00 | 48 | 88.8 |
| 20260503022012 | 51 | 315 | 3.5 | 3.5 | 0.00 | 0.00 | 0.00 | 47 | 88.8 |
| 20260503021012 | 52 | 292 | 3.5 | 3.5 | 0.00 | 0.00 | 0.00 | 44 | 88.8 |
| 20260503020011 | 54 | 292 | 2.6 | 2.6 | 0.00 | 0.00 | 0.00 | 42 | 88.8 |
| 20260503015012 | 57 | 270 | 2.6 | 2.6 | 0.00 | 0.00 | 0.00 | 41 | 88.8 |
| 20260503014012 | 60 | 338 | 2.6 | 2.6 | 0.00 | 0.00 | 0.00 | 40 | 88.8 |
| 20260503013012 | 62 | 292 | 4.3 | 4.3 | 0.00 | 0.00 | 0.00 | 39 | 88.8 |